Flag for China Weather past 2 weeks in Shenzhen, Guangdong, China

Now
86 °F

Passing clouds.


Feels Like: 97 °F
Forecast: 76 / 93 °F
Wind: 6 mph from Southwest

Location: Shenzhen Airport

Current Time: Aug 5, 2015 at 10:23:06 AM

Latest Report: Aug 5, 2015 at 10:00 AM


Visibility: N/A

Pressure: 29.77 "Hg

Humidity: 75%

Dew point: 77 °F

Location of ShenzhenLocation

Historic Weather in Shenzhen — Graph

°F

Shenzhen temperature yesterday

Maximum temperature yesterday: 90 °F (at 2:00 PM)
Minimum temperature yesterday: 82 °F (at 12:00 AM)
Average temperature yesterday: 85 °F

Past Weeks' High & Low Weather Summary

 TemperatureHumidityPressure
High90 °F (Aug 4, 2:00 PM)94% (Jul 21, 9:00 AM)29.92 "Hg (Jul 21, 9:00 AM)
Low77 °F (Jul 23, 10:00 AM)59% (Aug 4, 3:00 PM)29.68 "Hg (Jul 24, 6:00 AM)
Average84 °F81%29.80 "Hg
* Reported Jul 21 9:00 AM — Aug 5 9:00 AM, Shenzhen, Weather by CustomWeather, © 2015

Note: Actual official high and low records may vary slightly from our data, if they occured in-between our weather recording intervals... More about our weather records

Advertising

Shenzhen weather history for previous 24 hours

 ConditionsComfort  
Time TempWeatherWind HumidityBarometerVisibility
9:00 AM
Wed, Aug 5
84 °FScattered clouds.3 mph79%29.74 "HgN/A
8:00 AM84 °FScattered clouds.3 mph84%29.74 "HgN/A
7:00 AM84 °FScattered clouds.1 mph79%29.74 "HgN/A
6:00 AM82 °FPassing clouds.3 mph89%29.74 "HgN/A
5:00 AM82 °FClear.6 mph89%29.74 "Hg10 mi
4:00 AM82 °FClear.8 mph89%29.74 "Hg10 mi
3:00 AM82 °FClear.8 mph89%29.74 "Hg10 mi
2:00 AM84 °FClear.8 mph84%29.74 "Hg10 mi
1:00 AM84 °FClear.10 mph79%29.74 "Hg10 mi
12:00 AM84 °FClear.10 mph79%29.74 "Hg10 mi
11:00 PM
Tue, Aug 4
84 °FClear.10 mph79%29.74 "Hg10 mi
10:00 PM84 °FClear.10 mph79%29.74 "Hg10 mi
9:00 PM86 °FClear.10 mph75%29.71 "Hg10 mi
8:00 PM86 °FClear.13 mph70%29.71 "Hg10 mi
7:00 PM86 °FSunny.10 mph75%29.71 "Hg10 mi
6:00 PM88 °FPassing clouds.10 mph66%29.71 "HgN/A
5:00 PM88 °FPassing clouds.8 mph70%29.71 "HgN/A
4:00 PM90 °FPassing clouds.8 mph63%29.71 "HgN/A
3:00 PM90 °FPassing clouds.8 mph59%29.74 "HgN/A
2:00 PM90 °FPassing clouds.6 mph63%29.77 "HgN/A
1:00 PM88 °FPassing clouds.6 mph62%29.77 "HgN/A
12:00 PM88 °FPassing clouds.6 mph66%29.80 "HgN/A
11:00 AM86 °FPassing clouds.6 mph75%29.80 "HgN/A
10:00 AM86 °FPassing clouds.3 mph75%29.80 "HgN/A
Weather by CustomWeather, © 2015

See weather overviewHow to use our weather pages